CAPE
2074 2020 2227 2273 2030 1897 2222 2337 2244 2459 2655 2492 2047 2199 2434 2294 2868 2381 2015 2088 1778 2192 2185 1229 888 746 349 910 971 1215 1699 1870 1706 1562 1391 1825 2376 2616 2766 2645 2536 2422 2410 2443 2427 2402 2448 2426 2307 2226 2225 2204 2125 2065 1935 1875 1921 1924 1808 1793 1740 1748 1662 1623 1514 1679 1766 1794 1658 1427 1363 1260 1248 1220 1274 1330 1363 1256 1249 1205 1100 1215 1263 1289 1299
1574 1796 1819 1571 1539 1777 2503 2179 1949 1929 2622 2437 2964 2505 2724 2615 2958 2236 2075 2376 2152 1865 1895 1691 1237 856 467 261 636 1251 1665 1696 1758 1664 1582 1692 2156 2536 2657 2587 2530 2431 2417 2366 2434 2472 2428 2390 2311 2302 2277 2296 2242 2130 2082 1980 2060 2029 1954 1850 1810 1847 1654 1573 1519 1412 1693 1788 1874 1800 1563 1421 1363 1241 1143 1246 1130 1326 1019 1024 1263 1543 1536 1356 1448
1747 1473 1258 1489 1545 2015 2302 2204 2045 2170 2515 2515 3014 2360 2616 3225 2572 2266 2785 2744 2348 2134 2300 2201 1238 928 950 456 430 1028 1524 1584 1636 1824 1775 1760 2026 2261 2442 2483 2511 2493 2445 2306 2205 2186 2327 2230 2273 2345 2273 2298 2273 2254 2238 2236 2126 2065 2080 2020 1882 1846 1728 1492 1463 1414 1391 1769 1852 1795 1624 1646 1425 1643 1667 1560 1505 1361 1437 1772 1761 1776 1691 1576 1778
3061 2220 2210 2172 2360 1925 1564 2308 1884 1974 2249 2451 2254 2903 2807 3256 3277 3207 2176 2060 2443 2690 2776 2040 1180 1046 932 217 186 674 1333 1348 1515 1733 1764 2057 2278 2405 2355 2370 2510 2534 2517 2351 2280 2136 2136 2177 2152 2170 2104 2105 2183 2232 2184 2256 2132 2014 2013 2007 1926 1905 1858 1916 1852 1734 1505 1510 1791 1706 1674 1585 1550 1697 1786 1670 1533 1510 1743 1749 1824 1932 1950 1918 1878
3235 2317 3325 2302 2363 2109 2061 2583 2051 1990 2198 2493 2266 2538 2664 2993 2983 3617 2764 1589 1285 2048 2651 2123 1344 1046 904 269 270 200 895 1254 1300 1418 1865 2158 2384 2516 2546 2558 2384 2534 2474 2352 2260 2226 2121 2211 2137 2151 2117 2062 2162 2078 2109 2121 1991 2115 2161 2124 1956 1987 2036 2043 1999 1833 1824 1681 1764 1825 1715 1596 1693 1797 1730 1802 1784 1766 1851 1822 1841 1916 1915 1912 1874
3048 2641 2312 2786 2734 2847 2236 2296 2735 2648 2644 2977 2462 2370 2380 2689 2373 2056 3084 2376 1559 2446 1862 1396 1240 984 758 456 408 181 538 813 1045 1435 1755 2025 2315 2486 2452 2437 2402 2313 2408 2287 2294 2273 2232 2244 2157 2134 2155 2112 2077 2046 2058 2030 2013 2170 2188 2129 2101 2063 2041 1963 2006 1923 1844 1944 1829 1863 1696 1920 1862 1888 1901 1925 1901 1971 1929 1960 1958 1875 1814 1869 1931
2894 2232 2750 2316 2725 2618 2496 2894 2830 2666 3100 3935 2958 2436 2610 2330 2798 2458 2170 1950 1824 2924 2002 1927 1423 1104 587 618 318 486 296 808 1291 1500 1728 1921 2080 2196 2267 2280 2292 2233 2377 2285 2260 2415 2187 2100 2214 2182 2185 2156 2174 2183 2136 2088 2112 2075 2224 2242 2197 2064 2050 2008 1944 2020 1994 1866 1855 1699 1785 1919 1933 1843 1859 1871 1828 1749 1763 1801 1779 1807 1856 1901 1933
2927 2338 2142 2555 2011 2599 2321 2938 3238 3222 2913 3697 3186 2330 2388 2426 2949 2196 2780 2458 2550 1542 1431 1274 1387 1457 879 852 302 726 72 1071 1174 1338 1551 1810 1921 2004 2121 2116 2187 2177 2701 2136 2115 2359 2249 2023 2158 2258 2235 2248 2192 2279 2260 2195 2084 2124 2026 2091 2202 2183 1980 1984 2017 2010 2014 1862 1908 1866 1846 1798 1810 1749 1732 1734 1730 1554 1599 1595 1604 1608 1695 1842 1909
3073 2698 2117 2367 1726 1767 3351 2911 3476 2823 3023 3407 3282 3086 2407 2306 2620 3547 2776 2484 1770 1412 1403 1396 1403 1557 605 311 62 426 333 861 994 1153 1351 1540 1611 1796 1832 1927 2142 2878 2314 2057 2066 2149 2320 2319 2224 2232 2276 2224 2166 2219 2226 2166 2105 2058 2006 2064 2097 2064 1989 1950 1989 2008 2040 1948 1952 2000 1874 1704 1665 1696 1597 1573 1587 1548 1494 1404 1370 1505 1670 1744 1816
3127 2640 2412 2666 2030 2489 3406 3590 3426 3025 3123 3072 2997 2240 2043 2724 2329 2712 2425 2398 1659 1063 1237 1225 1359 833 628 353 292 162 32 402 622 1690 928 1059 1236 1420 1597 1803 2274 2196 1937 1898 2057 2089 2104 2262 2229 2308 2297 2227 2239 2177 2021 2065 2101 2108 2140 2108 1979 2073 2017 1892 1836 1796 1863 1800 1769 1673 1599 1669 1494 1380 1431 1391 1410 1348 1315 1246 1219 1379 1594 1706 1752
2974 2592 2373 2896 2522 3000 3197 3274 3488 3386 3604 4030 2941 2492 1828 2563 2194 2480 3486 3234 2292 1706 1563 1300 877 703 457 332 45 118 0 322 744 588 720 883 1004 1230 1432 1769 1817 1542 1694 1792 2038 1971 1969 2158 2095 2108 2230 2194 2293 2312 2056 1976 1934 2084 2115 1994 2018 2008 2078 1932 1845 1742 1673 1643 1605 1539 1377 1308 1387 1207 1282 1376 1339 1341 1254 1285 1337 1389 1448 1546 1656
2802 2858 2166 2561 2552 2384 2678 2960 3417 3165 3357 3329 2824 2373 2641 3250 3157 2524 2988 3112 2965 2907 2073 1893 1205 941 1687 13 96 46 0 210 118 299 455 583 983 952 1200 1554 1496 1325 1445 1522 1470 1636 1988 2061 2426 1994 1946 2230 2357 2331 1989 2082 2052 1986 1856 1885 2019 1995 1940 1769 1783 1699 1590 1559 1482 1461 1407 1348 1301 1172 1177 1243 1304 1235 1236 1343 1443 1494 1496 1484 1448
2770 2875 2419 2908 2554 2322 2675 2985 3314 3179 2790 3065 3010 2758 2510 3122 3479 3487 2772 2723 2267 2419 2590 875 470 104 113 439 8 376 508 86 28 6 144 241 505 463 887 1352 1354 1250 1348 1261 1328 1520 1731 1888 2102 1899 1976 1958 2199 2161 2155 2140 1999 1987 2032 1942 1921 1915 1896 1877 1674 1546 1472 1419 1402 1441 1445 1281 1308 1270 1172 1160 1191 1160 1245 1335 1415 1421 1396 1398 1410
2768 2676 2556 2548 2406 2808 2523 2829 3341 3103 2776 3462 3040 2853 3050 2599 3369 2756 3391 2066 2296 2457 2362 1161 592 204 26 311 0 6 807 466 1 2 11 4 16 6 639 1107 1232 1156 1244 1310 1360 1430 1529 1678 1680 1722 1952 1902 2072 1883 1827 1917 1912 1912 1892 1794 1739 1699 1736 1831 1708 1576 1318 1279 1202 1130 1077 1094 1063 882 860 1017 1116 1100 1178 971 985 1163 1315 1376 1338
2768 2699 2444 2524 2318 2691 2788 3106 3500 3584 3368 2920 3496 2803 2683 2361 2917 2785 2955 2792 2740 2542 1998 945 251 723 619 126 0 0 90 0 28 5 0 0 0 0 0 504 1000 1075 1087 1178 1307 1461 1434 1510 1442 1580 1710 1845 2022 1843 1748 2187 1780 1942 1710 1720 1782 1630 1675 1611 1653 1629 1472 1364 1224 930 963 929 847 920 981 950 1026 941 836 779 957 1048 1205 1120 1028
2593 2686 2601 2585 2415 2234 3406 3388 3360 3448 3118 3291 3363 3201 3409 3040 3045 2935 2343 2442 2338 2340 2098 1150 969 262 499 205 0 0 0 0 0 0 1 12 0 0 0 0 346 716 786 1013 1298 1414 1413 1512 1466 1410 1542 1617 1699 1710 1815 1798 2121 1850 1926 1796 1673 1725 1588 1766 1758 1597 1629 1345 1211 1023 962 700 896 945 775 1039 1012 1115 1186 1179 1200 983 830 594 519
2485 2449 2558 2569 2546 2390 3458 3240 3402 3458 3772 3340 3394 3602 3881 3440 3182 2931 2344 2200 2147 1647 1833 1060 694 729 251 275 267 0 0 0 0 2 74 13 0 0 0 0 0 0 0 288 618 874 1145 1402 1460 1533 1462 1439 1626 1734 1702 1923 1799 1957 1577 1602 1611 1513 1543 1648 1600 1522 1199 884 871 764 827 894 849 794 718 702 711 665 918 834 307 415 340 214 175
2432 2414 2402 2439 2639 2708 3435 3433 3395 3494 3604 3426 3452 3460 3564 3178 3223 2955 2436 2112 1780 1436 1378 2620 378 1838 743 351 16 8 244 0 0 0 450 50 0 0 0 0 0 0 0 12 116 221 539 723 1114 1433 1391 1418 1511 1207 918 1340 1282 1086 1236 1692 1478 1420 1493 1341 1360 998 849 804 787 936 1025 888 618 343 399 155 180 266 139 88 62 154 195 154 143
2339 2358 2288 2458 2618 3151 3208 3630 3433 3500 3554 3447 3474 3437 3572 3049 2747 3096 2276 2244 1336 1330 1370 658 678 650 660 254 504 1418 525 0 0 217 0 0 0 0 0 0 0 0 2 33 99 171 281 311 159 806 1116 1147 879 89 41 64 520 643 1361 1586 1504 1333 1225 1186 845 355 222 353 442 407 200 91 21 0 98 204 22 98 8 74 2 1 21 28 42
2360 2270 2205 2270 2650 3214 3092 3491 3370 3434 3421 3282 3365 3549 3500 2930 2773 2618 2590 2706 1626 1373 1593 184 13 0 267 4 477 899 55 429 14 0 54 0 0 0 0 0 0 0 0 4 59 115 154 343 161 120 705 666 238 87 38 38 56 343 940 1512 1326 1199 959 363 65 67 137 95 93 25 11 0 0 0 0 20 32 3 23 16 21 91 30 88 246
2183 2340 2150 2159 2702 3131 3364 3391 3486 3436 3424 3160 3230 3475 3314 3016 2980 2502 2256 2299 1690 1976 1456 295 210 0 67 74 340 2 96 168 422 638 56 0 1 0 0 0 0 0 0 0 2 6 98 112 98 121 41 64 25 11 0 0 0 4 766 1273 1294 990 648 473 176 51 66 121 214 281 349 241 148 157 61 173 103 42 119 160 193 267 324 320 363
2110 2163 2286 2155 2665 3158 3408 3495 3483 3574 3329 3307 3315 3422 3464 2727 3063 2607 2276 2202 2277 2004 1457 1006 956 333 0 0 14 137 17 0 7 28 18 5 5 0 0 0 0 0 0 0 0 0 14 13 276 39 2 12 2 0 0 0 0 0 233 789 1027 985 719 588 478 168 91 126 77 165 91 77 76 204 191 236 177 196 254 264 273 276 374 401 340
2210 2030 2179 2164 2577 3364 3460 3474 3335 3408 3294 3306 3369 3426 3339 3290 2985 2460 2255 2034 2246 2172 2201 1838 1055 702 288 0 11 52 0 0 0 48 84 0 5 3 1 0 0 0 0 0 0 0 0 11 81 0 3 17 0 0 0 0 0 0 0 73 212 409 556 638 376 420 462 467 147 98 34 6 9 10 22 54 84 100 156 190 184 222 248 274 260
2346 2086 2324 2154 2400 3305 3556 3472 3444 3339 3334 3165 3279 3294 3269 3012 2986 2553 2424 2296 2102 2272 1520 441 1311 247 221 194 0 476 675 67 0 712 42 9 0 0 382 160 18 0 37 274 0 0 0 0 0 0 2 0 0 0 0 0 0 0 58 75 10 34 88 196 120 71 238 294 189 152 63 22 16 28 52 79 129 242 326 308 301 361 362 299 236
2373 2098 2252 2281 2289 3013 3238 3389 3462 3368 3321 3202 3213 3081 3031 2896 3028 2737 2429 2581 2051 2262 1371 806 835 181 60 102 96 167 278 461 344 300 681 666 480 323 416 61 96 12 49 0 0 0 0 0 0 0 0 2 0 19 0 0 0 133 53 52 0 14 0 0 0 0 0 0 1 15 116 211 199 194 209 187 404 479 476 407 298 164 218 381 622
2383 2153 2022 2412 2321 2724 3009 3125 3376 3430 3417 3263 3200 2888 2628 2907 2869 2812 2510 2585 2095 1962 1549 1024 684 493 259 42 4 18 62 349 74 102 456 210 218 140 452 445 36 0 68 0 19 0 0 0 0 0 0 5 6 9 46 85 61 703 295 0 0 0 0 8 2 0 0 0 0 24 83 120 386 350 422 381 458 391 485 511 661 678 765 1025 1140
2409 2322 2170 2209 2387 2686 2936 2936 3167 3370 3337 3282 3143 2951 2974 2692 2766 2666 2598 2429 2471 1929 1418 958 951 978 501 286 6 0 0 60 0 0 320 4 26 106 206 27 23 5 105 81 165 5 6 0 0 0 0 35 16 66 28 145 148 927 717 0 0 0 0 0 22 4 0 0 9 57 185 326 398 442 379 373 525 608 808 878 1026 1081 1058 1124 1219
2606 2532 2493 2176 2278 2791 2991 2940 3018 3305 3133 3332 3307 2981 3020 2890 2752 2611 2592 2574 2368 2356 1790 1239 1120 838 800 343 173 183 49 85 0 0 0 20 27 9 119 0 1 6 56 95 14 21 5 8 10 1 25 38 61 210 149 217 149 767 1331 0 0 0 0 0 1 22 9 0 35 191 358 502 656 807 866 845 850 922 1117 1069 1015 1004 1042 1054 1140
2582 2753 2623 2385 2190 2760 3009 2985 2922 3184 3172 3144 3388 3087 2838 2772 3046 2595 2664 2660 2368 2419 2026 1514 1024 1157 883 854 146 23 97 917 484 25 0 103 70 2 27 0 3 0 31 66 1 0 7 0 0 2 55 92 107 113 195 47 117 844 593 16 0 0 0 0 0 9 36 57 46 169 378 505 601 730 850 921 1005 1017 1101 1066 1014 971 970 912 842
2669 2705 2689 2461 2219 2825 2975 3002 2931 2934 3281 3173 3280 3088 2993 2811 2832 2906 2658 2682 2399 2320 2019 1705 1131 1225 1045 946 833 344 461 461 648 851 13 380 792 205 385 0 136 144 31 2 0 12 26 13 0 6 50 72 80 78 164 105 251 1271 504 36 22 69 0 0 0 0 15 63 101 98 178 347 482 491 518 730 879 918 1025 976 917 913 903 856 733
2973 2742 2692 2518 2514 2491 2761 2912 2922 2860 3031 3280 3285 3152 3176 2893 2896 3043 2732 2716 2406 2224 1971 1715 1224 1099 1230 1070 915 406 252 543 599 500 560 158 502 756 881 399 451 117 445 342 310 440 220 131 0 78 110 184 125 220 232 264 883 1091 348 58 0 203 402 105 6 0 0 15 60 108 114 166 188 196 235 285 359 445 650 753 726 611 506 495 525
3157 2997 2723 2634 2388 2716 2719 2830 2903 2951 2918 3172 3367 3267 3352 3059 3027 3055 3044 2762 2582 2333 2113 1748 1334 1100 1255 1264 1086 894 550 521 603 732 1016 367 260 462 664 626 639 376 295 629 398 351 422 289 59 92 141 271 158 222 243 664 888 904 205 102 48 143 422 418 245 24 0 3 61 106 75 31 8 12 53 125 189 323 588 483 324 372 421 479 560
2953 3218 2960 2727 2461 2443 2742 2819 2930 3045 3000 3065 3380 3361 3381 3335 3086 3222 3174 2876 2888 2536 2297 1979 1588 1292 1120 1299 1264 1088 736 567 623 564 1014 787 642 444 524 499 582 584 449 422 582 473 550 589 800 154 298 139 203 26 59 373 938 690 344 236 318 568 605 473 279 160 42 4 37 46 11 1 0 0 0 8 58 321 452 305 394 348 306 365 412
2923 2768 3021 2911 2642 2306 2519 2720 2902 3101 3121 3082 3279 3408 3351 3345 3241 3124 3200 3142 2888 2908 2590 2223 1918 1557 1194 1188 1232 1121 931 578 595 597 775 1015 704 542 695 695 392 634 396 314 286 575 578 305 465 224 385 112 213 335 121 239 791 639 488 275 849 644 690 645 257 163 78 31 1 0 0 0 0 0 0 0 8 118 176 156 184 95 72 214 140
3090 2787 2504 2721 2772 2490 2352 2525 2693 3038 3179 3118 3145 3334 3352 3269 3245 3083 3012 3145 3075 2902 2837 2503 2128 1811 1437 1326 1215 1158 1169 770 584 537 621 948 794 601 518 721 680 609 672 399 290 464 606 517 631 430 626 510 172 427 820 478 719 643 528 280 477 928 789 643 560 327 127 27 0 0 0 0 0 0 0 0 0 6 30 36 11 1 0 1 0
3012 3033 2695 2365 2752 2792 2546 2432 2480 2729 3080 3134 3080 3149 3260 3226 3141 3042 2896 2939 3035 2928 2803 2644 2300 1959 1640 1404 1369 1138 1242 1135 791 635 576 691 907 781 617 600 665 742 718 699 487 292 530 564 644 836 602 632 599 468 672 764 779 749 601 508 308 609 812 725 605 548 454 424 0 0 0 0 0 0 0 0 0 0 0 0 0 0 0 0 0
2665 2976 2938 2573 2356 2809 2834 2616 2497 2508 2821 3041 3034 2997 3071 3110 3047 2934 2815 2770 2927 2915 2754 2598 2392 2066 1765 1507 1439 1343 1050 1224 1061 862 727 657 740 865 772 704 688 683 746 838 749 646 625 606 542 701 844 505 434 725 490 699 696 874 757 684 612 566 552 490 537 586 609 511 58 0 0 0 0 0 0 0 0 0 0 0 0 0 0 0 0
2571 2775 2914 2813 2465 2383 2862 2912 2786 2618 2682 2903 2938 2900 2897 2974 2966 2872 2737 2632 2722 2870 2766 2568 2382 2190 1879 1578 1422 1406 1266 1090 1160 1028 1031 877 794 870 903 814 799 745 742 853 843 788 764 778 710 587 778 1044 665 660 622 578 611 628 814 859 775 689 662 579 481 448 449 453 21 0 0 0 0 0 0 0 0 0 0 0 0 0 0 0 0
2602 2704 2856 2891 2752 2441 2412 2847 3038 2992 2818 2854 2946 2895 2808 2839 2896 2846 2732 2605 2512 2669 2764 2612 2388 2179 1966 1752 1573 1476 1387 1201 1058 1229 1200 1164 1124 1025 1033 990 895 889 808 798 993 848 774 738 816 807 780 1043 1085 921 751 759 602 560 516 608 627 756 669 586 624 522 459 575 256 24 0 0 0 0 0 0 0 0 0 0 0 0 0 0 0
2524 2546 2797 2883 2892 2728 2432 2493 2804 3120 3150 2963 2916 2932 2809 2712 2834 2861 2794 2684 2551 2473 2633 2685 2508 2258 2020 1857 1766 1652 1526 1383 1123 1143 1340 1333 1280 1294 1223 1163 1074 1014 942 840 994 1063 912 813 753 773 868 934 1129 1114 973 758 754 749 593 602 566 536 580 604 424 543 538 470 208 107 31 4 0 0 0 0 0 0 0 0 0 0 0 0 0
2390 2361 2531 2854 2864 2868 2834 2678 2620 2837 3193 3221 3009 2918 2863 2704 2698 2893 2896 2819 2715 2594 2528 2612 2629 2497 2248 2018 1894 1863 1745 1588 1399 1119 1285 1402 1390 1351 1344 1302 1222 1104 1019 909 820 1108 1112 1012 948 870 777 766 821 992 1074 825 738 674 612 761 702 579 605 584 628 468 494 596 481 401 320 94 58 19 2 0 0 0 0 0 0 0 0 0 0
2375 2324 2306 2566 2878 2866 2930 2997 2892 2832 2975 3254 3222 2986 2880 2783 2684 2777 2944 2938 2878 2762 2631 2561 2599 2592 2462 2274 2075 2013 1954 1839 1678 1465 1264 1384 1449 1374 1312 1290 1275 1204 1093 990 858 872 1043 1090 992 911 855 776 664 752 874 941 789 705 684 686 601 601 878 815 678 774 721 690 625 603 561 458 340 28 7 15 19 201 0 0 0 0 0 0 0
2696 2622 2517 2370 2643 2910 2869 3023 3156 3044 2949 3009 3248 3256 3041 2895 2776 2752 2898 3020 2981 2942 2824 2672 2599 2638 2626 2486 2324 2208 2160 2072 1950 1810 1606 1338 1430 1441 1322 1242 1225 1222 1180 1078 994 891 860 969 1069 1034 957 890 835 671 672 807 892 814 731 778 619 566 579 715 734 755 829 739 648 630 550 428 179 136 152 58 74 114 28 0 0 0 0 0 0
2894 2844 2792 2624 2470 2796 2965 2947 3139 3256 3159 3008 3051 3282 3284 3120 2942 2874 2934 3056 3118 3076 3020 2906 2768 2694 2720 2704 2610 2467 2356 2264 2169 2068 1926 1730 1497 1408 1429 1312 1265 1243 1198 1118 1058 1014 946 872 869 981 1064 1065 1028 943 772 678 762 813 740 727 722 609 554 507 564 590 647 735 644 545 403 442 212 12 185 129 96 87 110 17 0 0 0 0 0
2900 3059 3001 2902 2702 2526 2947 3108 3101 3262 3311 3227 3156 3199 3321 3304 3173 2993 2991 3048 3168 3195 3158 3099 3008 2911 2836 2826 2802 2716 2589 2479 2369 2241 2134 2041 1911 1742 1489 1402 1335 1320 1308 1231 1074 990 996 954 848 788 808 897 938 972 936 812 669 731 768 710 682 633 573 539 560 490 635 620 526 451 310 168 352 269 17 1 1 1 1 7 1 0 0 0 0
2497 3011 3140 3072 2983 2779 2636 3036 3216 3230 3384 3436 3385 3291 3287 3337 3320 3184 2978 3032 3062 3151 3211 3165 3114 3069 3021 2963 2945 2907 2840 2748 2627 2522 2407 2290 2202 2081 1888 1660 1465 1380 1379 1332 1245 1102 1005 972 893 803 760 718 785 815 859 870 829 777 768 730 650 634 588 585 583 523 467 483 367 270 232 94 177 261 19 1 0 0 0 0 0 0 0 0 0
2284 2538 2944 3136 3146 3114 2929 2704 3060 3329 3400 3541 3592 3500 3382 3343 3345 3325 3094 3010 2978 2952 3028 3139 3113 3047 3033 3034 3014 3008 3003 2963 2856 2787 2723 2650 2566 2426 2208 2001 1807 1619 1410 1380 1332 1276 1164 1015 961 868 768 768 782 785 831 813 766 742 684 622 660 712 698 612 569 567 501 357 264 208 174 18 14 0 0 0 0 0 0 0 0 0 0 0 0
2336 2372 2506 2804 3126 3239 3220 3077 2844 2956 3396 3530 3678 3715 3629 3498 3389 3325 3180 3040 2961 2858 2778 2820 3037 3056 2982 2975 3028 3028 3024 3022 3009 2953 2884 2795 2726 2629 2496 2327 2146 1986 1789 1594 1398 1368 1268 1136 1057 1003 915 836 883 968 891 864 806 717 688 644 693 700 651 561 502 524 644 511 342 249 172 0 0 0 0 0 0 0 0 0 0 0 0 0 0
2410 2502 2538 2595 2779 3070 3246 3267 3152 2936 2911 3398 3705 3789 3820 3746 3634 3477 3330 3180 3045 2950 2825 2714 2743 2937 3052 2979 2910 2960 3011 3007 2999 3020 2991 2925 2849 2716 2562 2434 2320 2152 2028 1865 1737 1590 1412 1318 1199 1082 1024 976 975 993 1009 972 933 869 814 724 708 698 679 618 577 569 664 591 417 271 54 46 0 0 0 0 0 0 0 0 0 0 0 0 0
2590 2644 2698 2758 2826 2954 3137 3268 3274 3195 3010 2924 3409 3858 3967 3951 3859 3737 3642 3516 3417 3252 3064 2949 2864 2834 2939 3116 3066 2924 2859 2916 2991 3021 3027 2985 2916 2813 2685 2526 2408 2244 2092 1968 1879 1810 1634 1548 1435 1257 1111 1068 1082 1098 1079 1103 1117 973 878 791 725 713 734 701 671 640 719 737 508 274 195 153 0 0 0 0 0 0 0 0 0 0 0 0 0
2939 2940 3082 3079 3085 3126 3208 3306 3416 3407 3317 3190 3093 3304 3829 4101 4143 4084 3959 3855 3714 3618 3545 3466 3304 3111 3074 3162 3253 3211 3044 2918 2934 3024 3036 3006 2914 2810 2716 2606 2457 2278 2134 2013 1936 1840 1745 1590 1522 1458 1344 1180 1124 1136 1146 1163 1138 1044 902 820 720 768 782 772 744 720 778 858 597 277 17 0 0 0 0 0 0 0 0 0 0 0 0 0 0
Wind_Speed
12 11 11 10 11 10 11 10 11 12 12 13 12 13 13 12 13 14 12 13 14 15 16 17 18 17 13 15 19 18 17 17 16 17 16 16 16 19 22 22 21 20 21 21 21 21 20 19 18 19 18 17 17 16 15 14 13 13 12 12 12 12 12 12 11 10 8 7 8 8 9 10 11 12 12 12 13 13 13 13 12 11 10 9 8
10 11 10 10 10 10 9 10 10 12 10 11 12 10 11 10 10 11 12 11 12 14 14 16 18 17 15 13 18 17 17 16 17 16 15 15 16 17 22 21 21 21 22 22 23 23 21 19 19 19 19 19 19 18 16 16 15 14 13 14 14 14 14 14 14 14 13 12 12 11 12 13 12 10 12 13 13 13 14 13 11 9 7 6 5
9 10 9 10 10 10 11 11 10 10 9 10 10 9 9 8 9 9 8 8 12 14 12 13 15 15 15 12 14 15 15 16 16 14 14 15 15 15 18 23 22 22 22 23 22 23 22 21 20 19 19 19 19 18 17 17 17 17 16 15 16 16 16 15 15 15 15 15 14 14 14 15 15 14 14 14 14 14 12 13 13 12 9 6 4
7 8 9 10 10 12 11 10 10 10 9 9 8 7 7 7 6 5 6 7 9 12 11 11 13 14 15 12 11 13 15 15 13 13 14 13 14 15 15 18 22 21 22 22 22 22 22 21 20 20 20 19 19 19 18 17 18 18 18 18 17 17 17 16 15 16 16 16 16 15 15 16 16 17 17 17 17 16 17 16 16 15 13 11 9
6 8 9 9 10 11 9 10 10 10 9 7 6 6 5 4 4 5 4 6 6 9 9 9 10 12 12 8 9 8 13 11 12 12 11 11 13 14 14 15 16 20 21 21 21 21 21 20 20 20 20 19 19 19 18 18 17 18 18 19 18 18 18 17 17 17 16 16 17 17 17 17 17 17 18 18 18 17 16 17 16 15 15 14 13
6 7 7 8 9 9 9 9 10 9 8 7 7 7 6 5 5 2 5 4 5 7 8 8 10 9 7 9 9 6 11 14 12 11 12 12 12 13 13 14 15 15 16 20 20 20 20 19 19 19 19 19 19 18 18 18 18 18 18 18 18 17 18 18 16 17 17 17 17 17 16 16 17 17 17 17 18 18 17 16 16 17 15 14 13
7 6 7 9 8 8 8 8 8 8 8 7 8 7 6 6 4 3 4 5 4 5 6 9 7 7 8 7 8 8 6 13 11 11 11 13 13 13 13 14 14 15 15 15 19 19 19 19 19 19 19 18 18 17 17 18 18 18 18 19 17 15 15 15 15 15 15 15 16 16 16 16 16 16 16 17 17 16 16 16 15 15 15 15 14
7 7 6 8 8 7 9 9 9 9 9 7 7 7 8 7 7 5 5 6 4 5 8 9 7 8 9 8 7 8 nan 10 13 13 14 14 13 14 14 15 15 15 16 16 16 16 20 20 20 20 19 18 17 17 17 17 18 18 19 20 18 14 13 13 13 14 14 14 13 13 14 15 14 15 15 15 15 15 15 15 15 14 14 14 15
6 7 7 8 8 8 9 10 10 9 9 8 7 9 9 9 9 8 9 6 6 8 11 10 10 10 9 8 nan 6 6 15 15 14 13 14 13 14 15 14 14 16 14 15 15 15 17 20 21 21 20 18 17 17 17 18 19 20 19 20 20 15 11 11 11 12 12 13 12 13 14 15 15 14 14 14 14 14 13 13 13 11 11 12 12
6 7 8 8 9 8 9 9 9 10 10 9 10 10 9 9 11 11 12 7 12 11 11 14 12 11 9 9 9 7 nan 13 13 14 14 13 13 14 14 14 14 14 15 16 16 15 15 18 21 21 20 19 18 18 18 18 20 20 20 21 20 18 14 13 12 11 13 12 12 13 11 13 15 15 14 13 13 12 12 12 11 12 12 11 11
5 7 8 9 8 8 9 9 10 10 9 10 11 12 12 12 13 13 12 11 14 15 15 14 14 10 10 10 nan 8 nan 9 12 13 13 13 13 13 12 13 13 15 15 16 16 16 16 16 15 15 17 21 20 20 20 20 21 20 20 20 20 20 18 17 15 15 15 15 15 15 14 15 15 14 12 13 14 14 13 13 12 13 13 11 11
5 6 8 9 7 8 8 9 9 9 9 11 11 11 11 11 12 12 11 11 11 12 12 10 9 10 10 nan nan nan nan 7 9 12 13 14 12 11 12 12 13 14 15 16 17 17 17 17 17 16 16 18 21 21 20 20 20 21 21 20 19 19 19 18 17 17 16 16 15 13 13 13 13 14 14 14 13 12 12 12 12 12 11 11 11
5 5 7 9 6 7 7 9 9 8 9 10 10 11 11 11 11 9 9 10 11 11 11 10 10 9 7 8 nan 9 8 nan nan nan 12 13 12 13 12 13 13 13 15 16 17 17 17 17 17 16 15 15 16 19 19 20 20 19 20 19 18 18 17 16 17 15 15 14 13 13 13 13 12 12 11 11 11 12 12 12 12 11 12 12 12
5 5 6 7 7 6 8 10 9 9 9 9 8 9 9 11 10 8 9 10 12 12 12 9 9 12 nan 10 nan nan 9 7 nan nan nan nan nan nan 12 13 12 14 14 15 16 17 17 17 17 16 14 14 14 14 14 15 15 17 18 18 17 17 15 15 15 13 12 11 11 12 12 13 12 12 13 14 14 14 14 12 13 14 14 14 15
4 5 6 7 8 6 9 9 8 8 8 9 7 10 11 11 11 11 10 11 12 12 13 10 11 11 10 9 nan nan nan nan nan nan nan nan nan nan nan 11 12 13 13 14 15 17 17 17 17 16 14 14 13 12 10 11 11 15 15 12 15 14 14 14 13 12 11 11 10 11 11 13 14 16 17 17 17 17 17 17 17 17 17 18 19
5 5 5 6 7 6 7 8 9 8 9 9 9 10 11 12 12 12 10 10 12 13 15 13 10 12 12 12 nan nan nan nan nan nan nan nan nan nan nan nan 12 11 10 13 16 17 17 17 17 15 15 14 13 12 12 11 14 15 14 11 7 11 12 13 13 13 12 11 12 13 15 16 17 18 20 19 19 20 19 19 19 20 20 20 20
4 6 6 7 7 7 7 8 8 8 8 8 9 11 10 11 12 11 11 12 13 12 13 13 13 12 12 9 7 nan nan nan nan nan nan nan nan nan nan nan nan nan nan 13 14 15 16 16 15 15 16 15 12 12 11 10 10 9 10 12 9 10 13 14 14 14 14 15 16 17 18 19 19 20 20 21 21 21 21 21 20 20 20 20 20
4 6 7 7 7 8 6 7 8 8 9 9 9 8 8 10 11 10 12 13 14 14 13 11 14 12 12 11 nan nan 11 nan nan nan 8 nan nan nan nan nan nan nan nan nan 13 13 14 15 16 17 16 15 14 12 11 10 9 9 8 9 13 13 12 13 14 15 17 18 19 20 20 20 20 21 22 22 22 22 22 nan nan 20 20 20 20
5 7 7 8 8 8 8 7 7 7 8 8 7 8 8 9 9 10 13 13 12 14 13 11 9 9 9 9 10 10 9 nan nan 8 nan nan nan nan nan nan nan nan nan nan nan 15 14 14 15 16 17 15 15 nan nan nan 13 13 14 14 13 14 14 14 14 16 17 19 20 21 21 nan nan nan nan 22 nan nan nan nan nan nan nan nan nan
5 6 7 8 8 8 9 8 8 8 7 8 8 7 7 7 9 10 11 12 14 15 14 12 nan nan 7 nan 8 8 nan 8 nan nan nan nan nan nan nan nan nan nan nan nan nan 17 16 14 14 14 16 16 15 nan nan nan nan 12 13 15 15 14 13 13 nan nan 19 nan nan nan nan nan nan nan nan nan nan nan nan nan nan nan nan nan 21
5 5 7 7 8 9 10 10 9 9 8 8 8 7 7 8 9 9 9 10 13 13 12 14 10 nan nan nan 6 nan nan 8 8 8 nan nan nan nan nan nan nan nan nan nan nan nan nan 16 nan 15 nan nan nan nan nan nan nan nan 15 19 17 16 15 14 15 nan nan 22 23 24 25 25 25 25 nan 23 24 nan 26 27 26 26 26 26 26
4 4 5 7 8 9 10 11 11 11 10 10 9 8 6 8 9 9 8 9 11 12 14 13 11 10 nan nan nan 7 nan nan nan nan nan nan nan nan nan nan nan nan nan nan nan nan nan nan 15 nan nan nan nan nan nan nan nan nan 17 21 20 19 20 19 19 22 nan 24 nan 25 nan nan nan 23 23 24 25 27 28 28 29 29 30 31 30
4 3 5 7 7 9 10 11 11 11 12 11 11 10 9 9 9 9 8 9 10 12 12 11 10 10 10 nan nan nan nan nan nan nan nan nan nan nan nan nan nan nan nan nan nan nan nan nan nan nan nan nan nan nan nan nan nan nan nan nan 23 24 24 25 25 26 25 24 25 nan nan nan nan nan nan nan nan nan 29 30 30 31 32 32 32
5 6 6 8 8 9 10 10 11 12 13 12 12 12 11 10 10 10 9 9 9 10 11 11 10 11 10 11 nan 10 10 nan nan 12 nan nan nan nan 13 13 nan nan nan 14 nan nan nan nan nan nan nan nan nan nan nan nan nan nan nan nan nan nan nan 28 29 nan 27 26 25 25 nan nan nan nan nan nan 28 29 30 31 31 32 32 32 32
7 8 8 10 9 9 10 11 11 13 13 13 13 14 13 13 12 12 12 11 10 10 11 11 10 11 nan 10 nan 10 11 12 11 12 12 12 14 13 13 nan nan nan nan nan nan nan nan nan nan nan nan nan nan nan nan nan nan 24 nan nan nan nan nan nan nan nan nan nan nan nan 25 23 22 21 22 23 25 26 28 30 31 32 33 33 34
9 10 10 11 10 10 11 11 11 12 13 14 14 14 13 14 13 13 13 13 11 10 11 10 10 10 11 nan nan nan nan 11 nan 12 12 13 13 14 13 11 nan nan nan nan nan nan nan nan nan nan nan nan nan nan nan nan nan 26 29 nan nan nan nan nan nan nan nan nan nan nan nan 25 23 23 24 26 27 29 30 31 32 33 33 34 34
10 9 10 11 11 10 11 12 11 11 12 12 14 14 14 14 14 14 13 13 13 12 11 10 11 11 11 12 nan nan nan nan nan nan 15 nan nan 16 16 nan nan nan 16 nan 16 nan nan nan nan nan nan nan nan nan nan 21 22 27 28 nan nan nan nan nan nan nan nan nan nan nan 27 26 24 24 25 27 28 29 31 32 33 34 35 35 35
8 9 10 12 11 11 11 12 11 11 12 12 13 14 14 14 15 14 15 13 14 13 12 12 12 12 12 12 12 12 nan nan nan nan nan nan nan nan 18 nan nan nan nan nan nan nan nan nan nan nan nan nan nan 21 22 23 22 27 28 nan nan nan nan nan nan nan nan nan nan 30 28 26 25 24 25 27 28 29 31 33 35 36 37 37 36
7 8 10 10 11 12 12 13 13 12 13 13 13 13 14 15 15 16 16 15 15 15 14 14 12 13 12 12 13 nan nan 12 12 nan nan 19 nan nan nan nan nan nan nan nan nan nan nan nan nan nan nan nan 20 19 21 nan 22 24 24 nan nan nan nan nan nan nan nan nan nan 31 29 27 25 25 25 26 28 30 32 34 36 38 39 39 39
6 6 8 10 11 12 12 13 14 14 14 14 14 14 15 15 16 16 16 16 16 15 15 15 14 13 13 12 12 11 11 12 14 14 nan 19 22 22 22 nan 22 22 nan nan nan nan nan nan nan nan nan nan nan nan 20 22 24 27 26 nan nan nan nan nan nan nan nan nan 32 nan 30 28 26 26 26 27 29 30 32 35 37 39 40 41 42
6 7 8 9 11 12 13 14 14 15 15 15 16 16 16 16 16 16 16 17 17 16 15 16 15 14 14 14 13 12 11 11 12 14 16 20 21 23 22 22 22 22 21 19 16 14 18 19 nan nan 20 18 20 21 21 21 24 28 28 nan nan 31 33 32 nan nan nan nan nan 34 33 31 30 29 29 30 30 32 34 36 38 39 41 42 43
8 9 10 10 11 13 14 16 16 16 17 16 17 18 18 17 18 18 17 17 17 17 16 16 16 17 15 14 14 13 12 12 11 13 15 18 20 22 23 23 22 23 23 21 19 16 15 18 nan nan 20 21 21 23 23 23 26 31 27 30 nan 34 30 29 34 nan nan nan nan 36 nan nan nan nan nan 31 32 34 36 38 39 41 42 43 43
10 11 13 14 14 14 16 17 18 18 19 18 18 19 19 19 19 19 19 19 19 17 17 17 16 18 18 16 14 13 14 14 13 13 15 17 18 20 22 23 23 22 24 23 21 18 13 15 17 19 21 22 21 nan nan 25 25 27 27 29 30 30 31 31 31 36 nan nan nan nan nan nan nan nan nan nan nan 37 39 39 41 42 43 44 44
14 14 15 15 16 16 16 17 18 19 19 20 20 19 19 19 19 19 20 21 20 19 18 18 17 16 18 18 16 15 15 15 15 15 16 16 18 19 20 23 23 23 24 25 23 22 21 15 15 16 20 21 24 22 26 25 25 26 27 27 27 29 31 32 33 33 nan nan nan nan nan nan nan nan nan nan nan 38 39 41 42 nan nan 44 44
15 16 15 15 16 16 16 16 18 19 20 20 20 20 20 20 20 19 20 22 22 21 20 20 19 17 17 17 18 17 16 16 16 16 17 18 18 19 20 20 22 23 24 25 25 23 23 20 20 19 20 21 22 22 22 24 26 28 29 28 29 28 30 33 34 34 39 nan nan nan nan nan nan nan nan nan nan nan nan nan nan nan nan nan nan
15 15 15 14 14 16 17 18 18 18 20 20 21 21 21 21 20 20 20 21 22 22 22 21 21 20 19 17 17 19 19 19 18 18 18 19 20 20 20 20 21 22 23 24 26 26 23 23 19 22 21 23 21 21 23 24 26 27 29 29 29 31 32 33 35 36 38 43 nan nan nan nan nan nan nan nan nan nan nan nan nan nan nan nan nan
14 14 13 13 14 16 18 19 19 19 20 20 21 21 20 21 21 20 20 20 21 22 23 22 22 22 21 20 20 20 21 21 21 21 20 20 20 22 22 23 23 23 22 23 24 25 25 25 22 20 22 23 23 23 26 27 24 26 27 30 31 32 33 34 35 37 40 44 nan nan nan nan nan nan nan nan nan nan nan nan nan nan nan nan nan
13 12 13 14 16 17 17 18 19 19 19 19 20 20 20 20 20 19 19 18 19 21 22 23 23 22 22 22 23 23 23 23 22 24 23 23 22 22 23 24 25 25 24 23 24 25 25 25 26 23 22 25 23 23 25 28 29 27 26 26 28 31 33 33 34 36 36 36 nan nan nan nan nan nan nan nan nan nan nan nan nan nan nan nan nan
12 12 13 16 16 17 17 16 16 17 17 17 17 17 17 18 18 18 18 18 17 17 19 22 23 23 22 22 23 25 25 25 25 25 26 26 24 24 24 25 26 27 26 25 25 25 25 25 24 26 25 25 28 27 25 28 29 31 31 29 28 29 32 36 35 34 36 38 38 nan nan nan nan nan nan nan nan nan nan nan nan nan nan nan nan
11 12 14 17 16 16 16 16 15 14 14 14 14 15 15 16 17 17 18 19 18 17 17 18 21 22 23 23 23 24 26 27 27 26 27 27 25 24 24 25 26 27 27 27 26 26 26 25 26 26 27 28 27 28 29 31 30 28 32 34 34 33 33 34 37 38 36 39 38 37 nan nan nan nan nan nan nan nan nan nan nan nan nan nan nan
9 11 13 15 16 15 15 15 15 13 13 14 13 14 15 16 16 17 18 19 19 19 18 18 19 20 22 22 23 24 25 28 31 29 28 28 27 26 25 26 26 27 27 27 27 28 27 27 26 27 28 29 31 34 34 34 35 36 34 36 35 36 36 35 35 37 39 41 41 41 39 nan nan nan nan nan nan nan nan nan nan nan nan nan nan
11 11 13 14 14 15 15 15 14 13 13 12 15 21 19 16 16 15 16 17 19 19 19 18 18 19 20 21 22 27 28 29 30 31 30 30 30 28 28 28 28 28 28 28 28 28 29 29 29 31 31 31 34 36 36 36 37 36 37 38 38 37 38 37 36 38 41 43 45 45 42 42 45 nan nan nan nan 52 nan nan nan nan nan nan nan
11 12 13 14 14 14 15 15 15 14 14 14 20 21 22 22 18 15 16 16 18 19 20 20 19 19 19 21 21 24 26 27 28 31 31 32 32 31 31 32 31 31 30 30 29 30 30 30 31 32 33 33 35 38 38 39 39 41 41 41 41 42 42 41 40 38 42 47 47 48 45 45 49 49 47 nan nan 52 nan nan nan nan nan nan nan
11 11 13 13 13 13 13 14 15 15 16 19 23 24 24 24 22 17 16 16 17 19 20 21 21 21 22 22 21 20 22 25 26 27 30 32 32 32 32 33 33 34 34 34 32 30 31 31 31 32 34 34 36 39 40 42 41 42 43 44 45 46 45 45 44 45 43 50 49 50 49 48 51 nan 52 51 nan nan 55 nan nan nan nan nan nan
12 12 13 13 12 12 12 15 15 17 16 21 24 26 26 27 27 23 17 18 18 19 20 21 22 23 22 21 21 21 21 28 28 27 27 27 29 32 32 33 34 35 34 34 33 32 33 32 31 31 33 35 37 38 43 44 44 44 46 45 45 47 48 49 48 48 46 53 53 52 52 52 55 54 nan nan nan nan nan nan nan nan nan nan nan
12 12 12 12 12 12 12 13 15 16 17 21 26 26 26 28 28 25 19 20 19 19 20 21 21 22 22 22 21 22 22 25 27 28 27 27 27 27 28 29 29 31 33 36 35 34 34 33 32 31 32 36 35 38 42 45 47 46 49 47 47 47 49 50 51 52 51 55 56 54 51 nan 56 57 nan nan nan nan nan nan nan nan nan nan nan
12 12 12 12 12 12 13 12 12 14 14 22 26 27 28 29 30 27 21 19 17 18 19 21 22 22 22 22 23 23 24 24 26 30 30 29 29 29 29 29 30 30 32 32 33 33 34 33 32 32 33 37 36 39 42 44 45 46 49 51 51 49 48 49 50 50 53 54 57 57 53 nan nan nan nan nan nan nan nan nan nan nan nan nan nan
11 11 10 10 11 11 11 12 12 12 11 19 23 25 27 28 31 27 24 22 20 19 19 20 21 21 22 23 23 24 24 25 28 35 34 32 32 32 32 32 31 32 32 34 36 36 37 36 34 34 35 38 40 41 42 44 45 46 47 49 50 50 52 52 51 51 53 53 57 58 53 nan nan nan nan nan nan nan nan nan nan nan nan nan nan
11 11 11 10 10 11 11 12 13 12 11 16 22 23 24 26 26 23 24 23 23 22 21 21 20 20 21 23 24 24 25 26 30 36 38 39 33 33 33 33 33 34 34 34 36 37 38 38 37 37 39 42 43 44 46 49 49 51 52 52 51 53 53 51 50 52 52 55 54 56 nan nan nan nan nan nan nan nan nan nan nan nan nan nan nan
10 9 10 10 9 10 10 11 12 11 11 16 23 23 24 26 26 23 22 23 23 24 24 24 24 22 22 24 25 26 27 27 31 36 39 40 35 34 33 34 34 34 33 35 35 36 39 40 39 40 42 44 46 48 49 50 53 56 55 52 52 55 52 51 51 52 52 52 54 57 56 52 nan nan nan nan nan nan nan nan nan nan nan nan nan
10 11 12 10 9 8 8 8 10 11 10 14 23 24 26 27 26 22 23 22 22 24 26 27 28 27 26 26 27 28 28 29 33 36 39 40 36 35 35 36 35 34 33 36 38 38 41 41 39 40 41 44 47 49 48 52 54 55 53 53 55 55 53 51 51 54 50 46 51 59 nan nan nan nan nan nan nan nan nan nan nan nan nan nan nan
Wind_Direction
70 69 68 68 68 66 61 62 65 65 62 64 67 70 71 73 73 72 83 79 85 90 92 95 92 91 74 28 37 42 44 44 45 41 43 45 45 34 21 19 23 24 28 28 28 27 29 27 23 22 23 22 23 26 22 15 13 14 13 15 16 17 17 16 18 13 13 13 15 17 9 7 0 358 1 2 2 360 354 347 339 327 319 315 318
69 64 62 66 66 67 63 61 56 60 60 61 73 63 65 72 72 70 71 78 82 82 81 87 89 92 85 54 35 36 37 35 35 36 38 39 40 36 23 25 22 25 31 33 32 32 32 30 28 27 27 27 26 25 23 20 19 20 20 21 23 23 26 26 29 27 27 28 27 29 30 27 24 22 18 19 19 16 15 7 360 351 338 329 320
67 56 62 57 57 53 51 51 49 53 54 60 72 65 68 65 68 73 78 73 81 80 79 85 86 82 79 66 33 24 26 27 28 25 26 32 34 34 30 24 24 23 31 35 35 35 35 32 31 32 31 30 28 24 23 22 23 25 25 26 27 27 32 35 35 38 34 30 32 34 33 33 32 29 35 30 30 29 26 24 27 26 27 22 10
60 51 49 47 48 47 42 40 42 42 43 52 58 72 70 72 76 78 66 67 79 86 77 78 78 81 78 70 52 17 13 19 18 15 21 23 25 28 30 33 24 23 29 35 37 36 36 33 32 35 35 33 30 28 26 24 23 27 29 30 32 32 33 37 39 41 41 36 35 37 36 37 36 33 34 33 33 32 32 34 34 36 39 43 44
53 43 41 43 45 44 39 34 34 34 36 39 49 65 69 67 80 67 73 75 81 87 86 80 76 80 83 78 82 27 10 10 11 13 11 18 21 23 25 31 36 21 26 34 36 36 35 34 33 37 40 37 36 33 29 27 28 29 30 31 34 36 36 37 39 39 38 40 35 36 36 34 35 32 32 31 32 35 36 38 37 39 43 45 47
59 55 47 49 47 38 36 29 29 29 29 22 34 52 55 70 68 78 77 66 76 79 79 81 76 70 76 69 72 56 10 0 6 7 2 14 20 20 21 26 27 26 26 26 31 34 31 31 34 38 39 40 39 36 34 32 32 31 33 32 30 35 39 40 40 39 36 37 36 35 33 30 33 29 28 27 26 25 28 30 32 36 40 43 45
64 52 51 42 41 36 29 31 22 23 22 25 30 52 47 55 70 56 79 80 67 77 64 68 61 74 63 78 78 89 19 347 356 3 4 13 17 16 21 24 24 22 19 20 26 28 31 28 30 34 37 40 39 36 34 34 34 34 33 32 33 36 42 39 40 41 40 39 39 35 30 27 25 23 20 22 24 23 25 29 31 32 33 33 36
68 67 52 48 38 40 38 34 32 23 31 33 35 46 60 59 69 59 67 70 55 57 75 66 65 66 60 63 72 66 nan 348 354 10 12 12 15 14 21 24 23 19 15 18 20 25 29 29 30 32 34 38 40 38 35 34 34 34 33 33 39 48 45 41 44 45 41 36 34 31 30 25 23 22 22 24 26 27 26 26 28 29 29 27 27
71 65 60 53 48 43 50 40 37 29 38 44 45 49 57 62 75 77 61 67 67 52 62 65 58 55 51 52 nan 46 19 357 7 14 14 15 12 15 21 26 25 15 18 20 20 23 31 32 32 33 34 36 38 41 40 36 37 35 34 37 45 51 47 41 37 37 35 27 24 24 24 22 21 23 26 28 29 31 31 31 30 25 26 26 21
69 62 61 58 50 41 47 41 36 38 43 52 54 61 69 70 68 75 73 42 66 55 57 60 56 50 46 38 40 28 nan 16 11 16 17 12 15 17 21 20 21 17 20 25 25 26 30 37 36 36 37 40 42 45 45 43 44 43 38 41 46 51 49 44 37 32 35 28 25 25 12 17 17 19 20 23 29 28 28 28 24 22 19 17 12
69 59 59 61 38 36 35 46 48 47 53 56 57 63 61 62 59 65 68 66 44 47 39 38 41 39 33 27 nan 26 nan 30 10 15 15 8 15 18 17 24 23 22 26 29 31 30 33 37 41 43 44 43 45 46 46 47 48 51 50 48 50 52 53 51 47 42 43 40 33 30 27 30 31 27 21 27 27 23 23 23 22 21 14 10 6
65 57 56 59 36 34 32 44 50 50 55 58 59 57 55 54 56 50 60 70 67 60 55 42 40 32 26 nan nan nan nan 20 10 7 11 15 15 14 19 26 30 31 30 33 32 31 33 37 36 38 44 49 46 47 45 47 51 54 56 55 57 60 58 57 56 53 49 49 47 43 41 42 40 37 32 29 28 24 23 21 18 14 5 358 353
55 54 49 60 45 32 31 43 49 49 53 58 54 52 51 53 51 57 54 62 65 67 54 29 28 24 38 34 nan 39 37 nan nan nan 17 23 18 14 15 20 29 36 37 33 33 30 29 34 35 33 36 45 49 47 46 47 50 54 57 58 56 59 59 61 61 55 55 54 47 42 37 34 36 31 30 28 27 20 17 17 13 6 359 348 342
40 49 49 50 52 26 30 36 41 44 51 56 49 57 55 58 57 63 62 49 52 51 51 19 31 14 nan 32 nan nan 43 47 nan nan nan nan nan nan 15 19 19 29 33 29 32 29 26 28 30 28 26 33 41 47 49 49 51 49 49 51 51 50 52 53 54 54 50 47 40 32 25 21 20 11 16 18 13 10 7 360 355 350 344 340 335
31 38 39 47 47 26 30 33 37 36 42 51 49 49 54 55 54 42 47 52 45 44 44 24 20 12 13 13 nan nan nan nan nan nan nan nan nan nan nan 18 15 22 22 21 24 26 23 25 23 19 18 23 29 33 37 35 40 38 45 49 43 37 40 40 39 41 33 25 19 10 1 7 358 6 5 357 356 353 345 346 344 344 343 337 332
28 34 39 39 38 26 26 26 32 33 31 35 46 53 52 58 51 43 35 39 42 38 28 19 10 353 12 17 nan nan nan nan nan nan nan nan nan nan nan nan 5 11 13 11 15 19 17 17 19 13 11 15 18 19 24 26 26 23 26 30 26 36 20 20 19 14 7 359 356 351 353 353 356 355 353 353 351 347 346 344 341 337 333 333 332
24 35 35 34 31 24 21 26 24 32 33 34 44 51 50 50 50 41 40 35 35 33 27 12 14 7 358 358 9 nan nan nan nan nan nan nan nan nan nan nan nan nan nan 359 5 10 8 9 15 14 8 9 9 8 7 13 13 11 14 13 2 357 4 360 354 349 346 346 347 347 347 348 349 346 343 343 343 340 339 337 337 337 336 334 332
29 36 35 33 27 23 20 22 24 23 29 35 41 51 54 49 51 41 40 37 22 25 29 18 7 16 10 6 nan nan 28 nan nan nan 42 nan nan nan nan nan nan nan nan nan 357 0 3 4 5 9 9 5 1 359 360 0 359 356 349 4 347 351 349 343 341 338 339 339 340 341 342 343 343 343 344 343 343 343 343 nan nan 344 344 342 338
32 37 36 30 23 17 16 21 20 17 26 31 34 45 48 49 53 42 39 30 17 18 22 14 12 28 11 15 15 31 20 nan nan 27 nan nan nan nan nan nan nan nan nan nan nan 357 7 6 3 360 2 2 0 nan nan nan 351 348 349 349 339 342 340 340 338 338 336 336 337 338 340 nan nan nan nan 348 nan nan nan nan nan nan nan nan nan
33 35 31 28 20 14 14 18 13 11 14 24 30 38 42 50 47 45 41 22 18 15 22 19 nan nan 27 nan 32 29 nan 14 nan nan nan nan nan nan nan nan nan nan nan nan nan 0 6 8 4 358 357 2 2 nan nan nan nan 346 349 341 343 334 330 337 nan nan 339 nan nan nan nan nan nan nan nan nan nan nan nan nan nan nan nan nan 360
35 27 25 22 21 13 8 11 10 5 3 12 23 27 29 26 30 42 37 28 18 15 14 26 21 nan nan nan 33 nan nan 30 22 24 nan nan nan nan nan nan nan nan nan nan nan nan nan 5 nan 356 nan nan nan nan nan nan nan nan 347 347 348 346 342 340 347 nan nan 345 346 349 352 353 354 358 nan 8 9 nan 9 10 11 10 10 9 8
33 23 14 16 14 10 5 8 8 358 357 2 7 17 20 12 9 17 27 30 28 12 20 19 21 24 nan nan nan 36 nan nan nan nan nan nan nan nan nan nan nan nan nan nan nan nan nan nan 359 nan nan nan nan nan nan nan nan nan 352 351 356 354 354 352 351 354 nan 353 nan 355 nan nan nan 5 10 12 13 14 14 14 15 15 15 14 13
2 9 2 8 6 2 2 6 8 357 358 359 0 4 6 357 355 352 4 22 34 19 23 11 16 4 7 nan nan nan nan nan nan nan nan nan nan nan nan nan nan nan nan nan nan nan nan nan nan nan nan nan nan nan nan nan nan nan nan nan 357 356 356 357 356 357 356 357 358 nan nan nan nan nan nan nan nan nan 20 19 18 19 18 17 16
340 352 353 1 358 357 357 0 4 3 3 2 359 359 354 349 345 346 353 9 28 21 20 11 9 354 356 357 nan 12 10 nan nan 4 nan nan nan nan 8 14 nan nan nan 5 nan nan nan nan nan nan nan nan nan nan nan nan nan nan nan nan nan nan nan 356 357 nan 359 358 1 3 nan nan nan nan nan nan 22 23 23 22 21 21 20 19 18
339 349 348 350 349 346 350 355 359 2 5 2 358 356 350 349 346 345 346 353 11 17 13 12 3 351 nan 358 nan 14 19 18 1 9 7 355 356 5 22 nan nan nan nan nan nan nan nan nan nan nan nan nan nan nan nan nan nan 3 nan nan nan nan nan nan nan nan nan nan nan nan 6 10 14 16 16 15 14 15 18 19 20 20 19 18 17
336 345 342 336 342 347 345 349 351 354 358 360 356 356 354 352 347 344 344 344 351 357 9 7 358 354 346 nan nan nan nan 18 nan 8 2 357 2 0 8 9 nan nan nan nan nan nan nan nan nan nan nan nan nan nan nan nan nan 5 0 nan nan nan nan nan nan nan nan nan nan nan nan 11 14 16 14 14 16 18 17 17 16 17 17 16 15
336 332 329 332 336 337 338 340 341 348 350 353 354 353 356 351 348 346 339 337 338 339 352 356 355 354 344 346 nan nan nan nan nan nan 4 nan nan 1 354 nan nan nan 11 nan 12 nan nan nan nan nan nan nan nan nan nan 2 4 5 1 nan nan nan nan nan nan nan nan nan nan nan 11 13 14 13 12 14 14 14 13 13 13 15 15 14 13
314 317 327 332 328 332 332 336 332 333 341 343 346 348 349 348 350 348 344 336 336 333 338 343 347 351 348 344 349 9 nan nan nan nan nan nan nan nan 355 nan nan nan nan nan nan nan nan nan nan nan nan nan nan 6 6 2 3 5 359 nan nan nan nan nan nan nan nan nan nan 10 12 13 13 11 10 10 11 10 8 9 11 12 12 11 10
299 308 319 325 329 328 331 331 331 328 330 333 335 338 339 341 343 349 346 344 339 335 331 332 338 339 345 341 347 nan nan 349 2 nan nan 359 nan nan nan nan nan nan nan nan nan nan nan nan nan nan nan nan 4 6 3 nan 3 359 356 nan nan nan nan nan nan nan nan nan nan 10 11 10 9 7 6 5 6 6 7 6 8 8 9 8 8
312 304 310 322 327 331 328 328 329 327 326 326 326 326 325 330 334 341 343 341 344 336 333 329 330 328 336 340 341 351 350 350 353 356 nan 353 352 357 359 nan 353 355 nan nan nan nan nan nan nan nan nan nan nan nan 2 5 4 358 358 nan nan nan nan nan nan nan nan nan 9 nan 9 7 5 3 1 360 360 1 1 4 5 6 7 6 6
311 318 323 325 324 330 327 327 325 328 323 321 320 318 318 319 322 327 332 332 339 342 338 332 330 324 328 338 339 344 342 339 340 340 346 343 342 341 346 349 352 351 351 349 3 19 3 11 nan nan 359 2 357 356 359 2 4 360 1 nan nan 8 8 9 nan nan nan nan nan 8 7 6 4 1 358 356 356 356 357 358 2 4 5 6 5
314 323 330 334 330 326 326 326 324 323 322 319 318 316 314 315 313 317 321 324 327 337 341 338 332 331 328 329 334 338 334 325 334 332 334 336 336 335 337 341 344 345 346 347 353 12 7 2 nan nan 356 356 358 356 360 1 3 2 3 5 nan 13 9 7 11 nan nan nan nan 7 nan nan nan nan nan 354 353 353 353 356 0 3 4 3 3
320 318 327 331 331 326 321 321 321 319 318 316 313 311 310 311 310 313 312 318 322 325 332 341 339 336 338 331 326 330 321 326 328 326 323 330 329 333 334 335 341 342 342 347 352 2 4 356 352 354 356 349 358 nan nan 2 0 4 3 5 5 6 6 5 4 7 nan nan nan nan nan nan nan nan nan nan nan 351 352 355 357 359 360 1 1
325 328 322 321 323 326 320 318 316 315 314 312 309 307 309 308 310 306 309 313 318 319 321 331 339 337 340 340 330 322 320 322 321 326 318 322 325 328 332 333 339 343 341 340 350 349 2 353 351 351 349 352 355 360 1 1 2 358 359 0 0 360 2 2 0 2 nan nan nan nan nan nan nan nan nan nan nan 352 352 354 356 nan nan 358 359
325 330 328 321 322 326 328 320 314 311 309 307 304 304 306 309 311 310 310 313 315 318 318 324 331 333 335 339 338 327 316 320 322 323 317 318 321 327 332 330 335 339 340 341 338 349 352 358 347 346 351 350 354 357 357 358 357 354 354 355 356 357 358 359 0 360 3 nan nan nan nan nan nan nan nan nan nan nan nan nan nan nan nan nan nan
327 327 329 333 323 327 328 323 319 314 310 308 306 306 309 310 311 314 314 314 315 317 319 319 321 326 332 332 336 335 326 326 323 321 320 318 320 325 327 329 331 336 337 337 341 340 343 349 349 346 344 343 354 348 347 346 349 350 352 352 351 353 354 356 358 358 360 4 nan nan nan nan nan nan nan nan nan nan nan nan nan nan nan nan nan
332 327 328 331 331 325 325 326 327 326 320 316 314 312 310 310 313 314 315 315 315 317 318 319 319 322 326 331 332 334 334 330 325 323 322 326 323 322 328 328 331 331 331 335 337 334 336 342 344 340 339 340 340 341 343 342 344 345 344 346 347 349 351 352 353 355 356 360 nan nan nan nan nan nan nan nan nan nan nan nan nan nan nan nan nan
333 332 331 329 334 336 333 331 331 332 329 327 327 324 320 315 314 314 315 316 316 317 318 318 320 321 325 328 327 330 336 338 333 328 325 330 327 325 327 328 328 326 330 331 331 334 335 337 336 340 336 337 335 335 340 340 339 340 340 342 341 343 345 346 349 349 349 348 nan nan nan nan nan nan nan nan nan nan nan nan nan nan nan nan nan
337 333 333 338 339 342 344 341 341 342 342 340 336 331 326 320 319 318 316 316 315 313 317 321 324 325 327 326 327 329 334 339 338 335 332 331 329 332 330 327 323 323 326 326 327 330 332 333 332 332 334 333 330 335 334 336 337 337 338 340 342 341 341 342 345 345 342 344 348 nan nan nan nan nan nan nan nan nan nan nan nan nan nan nan nan
341 339 336 344 347 346 349 353 355 352 351 349 346 341 336 330 324 323 320 317 319 318 318 322 323 325 328 329 331 333 334 336 338 337 335 334 330 332 327 319 319 321 322 322 323 326 327 329 331 329 329 329 323 323 324 327 331 333 335 334 340 340 342 340 340 339 340 338 340 341 nan nan nan nan nan nan nan nan nan nan nan nan nan nan nan
332 342 343 345 350 352 355 359 1 358 356 357 352 350 348 346 339 336 332 328 326 327 328 327 326 328 328 330 334 336 338 340 342 340 339 335 330 332 326 319 319 320 319 319 323 323 323 324 326 321 324 327 324 323 325 328 334 338 331 328 332 335 336 337 338 335 334 333 335 336 339 nan nan nan nan nan nan nan nan nan nan nan nan nan nan
332 338 347 348 354 358 359 1 1 358 359 356 360 1 357 353 354 350 347 345 342 342 346 348 346 343 342 341 342 351 349 347 344 344 343 342 342 335 327 323 323 321 321 321 322 322 322 324 325 322 326 329 324 323 325 326 324 322 323 327 330 328 326 331 331 331 331 330 330 333 335 333 334 nan nan nan nan 340 nan nan nan nan nan nan nan
332 337 346 354 356 358 2 0 1 360 0 1 2 359 1 3 358 358 357 358 357 358 359 2 5 5 2 359 357 356 356 352 349 349 347 346 345 344 337 333 329 326 324 324 323 321 322 324 321 320 326 326 322 319 322 320 317 322 324 323 325 322 325 325 329 322 326 327 328 329 332 329 329 331 334 nan nan 337 nan nan nan nan nan nan nan
324 332 347 355 355 354 359 2 1 1 2 5 360 358 360 2 1 1 1 1 2 4 5 8 10 12 12 9 6 359 357 357 351 351 353 351 348 344 340 337 338 339 334 326 322 319 320 320 319 323 321 322 317 315 316 314 317 318 319 319 321 322 323 325 324 324 324 324 326 326 330 327 326 nan 329 333 nan nan 339 nan nan nan nan nan nan
316 336 347 349 355 353 353 358 1 2 2 1 356 357 357 358 1 3 4 6 6 6 6 8 10 9 7 5 3 359 354 358 355 351 347 347 348 347 342 344 345 343 339 336 332 326 319 319 320 321 319 314 312 314 312 313 312 316 314 317 319 319 321 322 323 322 319 321 320 324 327 325 323 326 nan nan nan nan nan nan nan nan nan nan nan
323 334 336 345 348 354 355 352 356 358 359 353 353 354 353 354 356 358 5 6 7 4 3 6 5 3 359 354 352 352 348 345 345 345 340 338 334 334 334 335 337 341 339 340 339 339 326 320 319 320 314 307 313 309 309 308 311 314 313 317 317 318 318 322 321 320 319 316 321 320 322 nan 322 323 nan nan nan nan nan nan nan nan nan nan nan
320 322 328 336 346 352 357 351 344 352 351 350 348 350 349 348 351 351 359 358 358 357 357 357 357 353 347 344 345 344 342 343 337 336 334 330 327 328 332 334 335 331 329 331 332 329 325 321 321 322 313 311 312 308 307 309 314 313 312 315 317 319 316 309 309 313 314 315 316 316 323 nan nan nan nan nan nan nan nan nan nan nan nan nan nan
299 303 312 327 338 340 341 347 353 353 342 341 341 343 344 342 341 337 344 347 348 348 349 347 343 339 336 335 334 335 336 337 335 332 331 323 325 329 332 334 332 329 329 332 334 331 326 323 321 320 316 315 316 314 312 311 311 309 308 306 306 307 307 309 314 311 313 314 315 317 317 nan nan nan nan nan nan nan nan nan nan nan nan nan nan
298 306 313 318 315 321 330 341 354 353 332 327 333 336 335 332 321 322 327 330 334 338 339 333 329 327 326 327 327 326 329 329 328 325 327 324 323 328 329 331 329 329 335 330 328 329 327 328 328 326 321 321 321 323 322 322 316 311 307 307 310 307 308 311 311 309 312 312 314 315 nan nan nan nan nan nan nan nan nan nan nan nan nan nan nan
293 294 284 281 290 304 323 340 343 342 335 320 326 331 329 324 321 316 315 319 327 329 328 321 316 318 323 333 329 324 324 322 322 322 323 322 322 325 325 325 325 332 338 328 314 314 323 326 325 322 319 319 321 322 323 321 319 312 311 315 309 305 310 311 311 310 308 310 313 312 311 315 nan nan nan nan nan nan nan nan nan nan nan nan nan
273 259 255 262 272 285 303 317 331 337 322 313 317 323 326 322 319 309 307 312 319 319 312 312 312 312 314 319 330 327 321 319 320 319 321 320 321 321 321 321 328 337 335 319 317 318 314 314 317 316 315 318 316 315 316 322 318 316 313 312 305 308 310 309 306 300 303 307 308 310 nan nan nan nan nan nan nan nan nan nan nan nan nan nan nan